Creek Data

    Home     View Charts     View Raw Data     Messages

ID Distance Battery Voltage Battery Current Internal Temp Internal Humidity External Temp Solar Input rssi snr Time Stamp Record
36876 0.0 3.89 0 81 38 72 5.1 -77 9 04/04/2025 03:30 PM 18739
36875 0.0 3.89 0 80 38 71 5.1 -75 9 04/04/2025 03:15 PM 18738
36874 0.0 3.91 0 80 38 71 5.1 -78 9 04/04/2025 03:00 PM 18737
36873 0.0 3.89 0 80 38 71 5.1 -76 9 04/04/2025 02:45 PM 18736
36872 0.0 3.89 0 79 38 71 5.1 -78 7 04/04/2025 02:30 PM 18735
36871 0.0 3.89 0 78 38 70 5.1 -81 7 04/04/2025 02:15 PM 18734
36870 0.0 3.89 0 76 38 70 5.1 -78 8 04/04/2025 01:45 PM 18732
36869 0.0 4.02 0 75 38 69 5.1 -78 9 04/04/2025 01:30 PM 18731
36868 0.0 4.04 0 74 38 69 5.1 -80 9 04/04/2025 01:15 PM 18730
36867 0.0 3.92 0 73 38 68 5.1 -77 9 04/04/2025 01:00 PM 18729
36866 0.0 4.05 0 73 38 67 5.1 -78 8 04/04/2025 12:45 PM 18728
36865 0.0 3.88 0 71 38 67 5.1 -79 8 04/04/2025 12:30 PM 18727
36864 0.0 3.88 0 70 38 66 5.1 -80 7 04/04/2025 12:15 PM 18726
36863 0.0 3.88 0 69 38 66 5.1 -77 8 04/04/2025 12:00 PM 18725
36862 0.0 3.89 0 68 38 65 5.1 -77 9 04/04/2025 11:45 AM 18724
36861 0.0 3.88 0 67 38 64 5.1 -79 8 04/04/2025 11:30 AM 18723
36860 0.0 4.01 0 66 38 64 5.1 -81 8 04/04/2025 11:15 AM 18722
36859 0.0 4.02 0 64 38 63 5.1 -79 8 04/04/2025 11:00 AM 18721
36858 0.0 3.88 0 63 37 62 5.1 -79 8 04/04/2025 10:45 AM 18720
36857 0.0 3.88 0 62 37 62 5.1 -75 9 04/04/2025 10:30 AM 18719
36856 0.0 3.88 0 60 37 60 5.1 -79 7 04/04/2025 10:15 AM 18718
36855 0.0 3.88 0 58 37 59 5.1 -77 8 04/04/2025 10:00 AM 18717
36854 0.0 3.88 0 57 37 57 5.1 -80 7 04/04/2025 09:45 AM 18716
36853 0.0 3.88 0 55 37 56 5.1 -76 8 04/04/2025 09:31 AM 18715
36852 0.0 3.88 0 54 37 55 5.1 -76 9 04/04/2025 09:15 AM 18714